To NAV CANADA Home Page Login to a new session Search on AWWS site Feedback and Comments Disclaimer Vers la page française équivalente Tips FAQ What's new on the site To the Forecasts and Observations / NOTAM section To "File a Flight Plan" website Publications and other links Update of the User's profile FIC Telephone Numbers My Weather Data Folder Route Weather Data Regional Weather Data Local Weather Data To the Forecasts and Observations / NOTAM section
Request Generated 10/08/2015 at 23:33:21 UTC . Weather information available at that time is displayed.



LWIS CYXN 082300Z AUTO 33016KT M05/M08 A2991=
METAR CYXN 082200Z 32020KT 15SM BKN020 BKN200 M03/M06 A2990 RMK
SC5CI1 -2.5/-3.7/0/1 LAST STFD OB/NXT 091200Z SLP128=
METAR CYXN 082100Z 30021KT 15SM SCT020 BKN200 M03/M06 A2989 RMK
SC4CI2 SLP123=

CYXN - No TAF is issued for this station

Your time UTC time
Weather data provided by Environment Canada and NAV CANADA